Погода в Магдагачи

Погода в Магдагачи : погода сейчас, прогноз погоды и архив. Всё, что Вы хотите узнать о погоде в Магдагачи!

Хотите узнать прогноз погоды в Магдагачи? Тогда Вам сюда: Погода в Магдагачи

Поиск расширенной информации на нашем сайте:

Другие новости

Новости СМИ2

Главная страница сайта

Новости сайта

03.07.2017

Напоминаем, что на нашем специализированном сайте Метеоцентр.Азия вы можете получить высокодетализированные автоматические прогнозы погоды по пунктам России, СНГ и мира в авиационном формате (включающие направление и скорость ветра, видимость, явления погоды, количество и форму облачности, нижнюю и верхнюю границу облачности).


Погода в Магдагачи - сегодня

Время (UTC), дата Ветер
(°,м/с) 
Видим.   Явления Облачность Т
(°С)
Тd
(°С)
f(%) Тe
(°С)
Pmin
(гПа)
dP
(гПа)
Po
(мм)
O2
(г/м3)
Тmin Tmax R s Состояние
почвы
21 17.09.17 050 (СВ) 0500 м  туман  ясно 
+10 +9.6 97 +11  1004.9  -0.7  722  279           
00 18.09.17 020 (С) 0500 м  туман  9/3 600 м кучево-дожд., средняя 
[Cb calv|Ac trans]
+10.4 +10 97 +13  1004.7  722  278  +9        сухая 
03 18.09.17 050 (СВ) 20000 м  {туман}  8/4 1000 м средняя, верхняя 
[Cu med, cong|Ac trans|Ci fib]
+16.8 +9.8 63 +20  1002.8  -1.1  721  272           
06 18.09.17 050 (СВ) 20000 м  {туман}  8/4 1000 м средняя, верхняя 
[Cu med, cong|Ac trans|Ci fib]
+18.3 +8.7 53 +19  1001.2  -1.2  720  270           
09 18.09.17 050 (СВ) 20000 м    6/3 600 м кучево-дожд., средняя, верхняя 
[Cb calv|Ac trans|Ci fib]
+17.8 +9.7 59 +21  1001.1  -0.2  720  270           
15 18.09.17 070 (В) 20000 м    6/3 600 м кучево-дожд., средняя, верхняя 
[Cb calv|Ac trans|Ci fib]
+11.2 +10.4 95 +14  1002.7  720  277           
18 18.09.17 050 (СВ) 20000 м    6/3 600 м кучево-дожд., средняя, верхняя 
[Cb calv|Ac trans|Ci fib]
+11.6 +10.6 94 +15  1002.9  0.2  720  276           
21 18.09.17 050 (СВ) 20000 м    6/0 средняя, верхняя 
[Ac trans|Ci fib]
+9.3 +7.8 90 +9  1003.5  0.3  721  279           
00 19.09.17 020 (С) 20000 м    4/0 верхняя 
[Ci fib]
+11.4 +7.5 77 +11  1004.1  0.8  721  278  +8.8        сухая 
03 19.09.17 340 (С) 20000 м    ясно 
+17 +6.5 50 +17  1003.8  0.4  722  273           
06 19.09.17 340 (С) 20000 м    ясно 
+18.6 +5.8 43 +19  1003.7  0.2  722  271           
09 19.09.17 320 (СЗ) 6{10}  20000 м    ясно 
+17.6 +6 46 +17  1004  0.2  722  272           
12 19.09.17 320 (СЗ) 6{10}  20000 м    4/0 средняя 
[Ac trans]
+10.8 +1.8 54 +9  1007  1.9  723  280    +19       
15 19.09.17 290 (З) 6{10}  20000 м    ясно 
+7.9 +1.3 63 +6  1008.3  0.7  724  283           
18 19.09.17 320 (СЗ) 6{10}  20000 м    ясно 
+4.7 -1.3 65 +2  1009.6  0.7  724  287           
21 19.09.17 290 (З) 20000 м    ясно 
+2.2 -1.8 75 +2  1010  0.1  724  290           
00 20.09.17 290 (З) 8{10}  20000 м    5/0 верхняя 
[Ci fib]
+5.7 -1.6 59 +3  1010  0.4  725  286  +2.1        сухая 
03 20.09.17 290 (З) 4{10}  20000 м    8/0 средняя, верхняя 
[Ac trans|Ci]
+11.8 -2.3 37 +11  1008.3  -0.7  724  280           
06 20.09.17 290 (З) 20000 м    ясно 
+16 -1.3 31 +16  1006.1  -1.4  723  275           
09 20.09.17 320 (СЗ) 20000 м    3/3 1000 м 
[Sc]
+17.8 +3.2 38 +19  1005.6  -0.2  723  273           
12 20.09.17 320 (СЗ) 20000 м    3/0 средняя 
[Ac trans]
+8.6 +1.6 61 +9  1007.3  0.2  723  282    +18.2       
15 20.09.17 360 (С) 20000 м    8/0 средняя, верхняя 
[Ac trans|Ci fib]
+8.6 +1 59 +9  1007.7  0.4  723  282           
18 20.09.17 360 (С) 20000 м    5/0 средняя, верхняя 
[Ac trans|Ci fib]
+7.4 +0 59 +7  1007.6  -0.3  723  284           
21 20.09.17 020 (С) 20000 м    8/0 средняя, верхняя 
[Ac trans|Ci fib]
+6 -1.2 60 +6  1007.7  723  285           
00 21.09.17 020 (С) 20000 м    8/0 средняя, верхняя 
[Ac trans|Ci fib]
+10.2 +0.4 51 +10  1007.3  0.2  723  281  +5.8        сухая 
Время (UTC), дата Ветер
(°,м/с) 
Видим.   Явления Облачность Т
(°С)
Тd
(°С)
f(%) Тe
(°С)
Pmin
(гПа)
dP
(гПа)
Po
(мм)
O2
(г/м3)
Тmin Tmax R s Состояние
почвы

Для получения пояснительной информации подведите курсор к названию столбца.

ПОГОДА в Магдагачи - архив

Всё, что Вы хотите узнать о погоде в Магдагачи - удобно и подробно!

Выберите нужную дату (начиная с 1 января 2015* года) и нажмите кнопку "Найти".
Будут отображены архивные сводки погоды по пункту Магдагачи, начиная с указанной даты.


Отображать данные в формате CSV (для использования в таблицах Excel)


Внимание! Наш архив погоды предназначен исключительно для личного некоммерческого использования в познавательных целях. Если Вам необходимы официальные справки о состоянии погоды (для производственных, юридических, коммерческих и т.п. целей), обращайтесь в органы Росгидромета.

*Примечание: данная дата относится к архиву по метеостанциям СССР (Россия, СНГ, Балтия).
Архив по метеостанциям Зарубежной Европы и Азии (кроме Китая) хранится 10 дней, по другим регионам земного шара (Китай, Африка, Америка, Австралия, Океания) - 1 день.

Магдагачи - район местоположения метеостанции


Название, широта, долгота, высота метеостанции:
Магдагачи 53.5°ш. 125.8°д. 370 м над ур. моря [Российская Федерация]

Дополнительная информация

В oтличие oт бoльшинства пoгoдных сайтoв мы публикуем пoдрoбную метеoинфoрмацию в детальнoм прoфессиoнальнoм фoрмате.

Характеристики температуры и влажнoсти вoздуха измеряются на высoте 2 м в тени вдали oт зданий и деревьев.
Скoрoсть ветра измеряется на высoте 10 м (на урoвне рoста челoвека скoрoсть ветра ниже в 1.5-2 раза). Если метеoстанция нахoдится в гoрoде или в лесу, тo скoрoсть ветра занижена на 2-4 м/с пo сравнению с oткрытым местoм. Скoрoсть ветра над акватoриями крупных рек и oзёр, а также на вершинах хoлмoв на 2-5 м/с выше, чем в oбычных услoвиях.
Атмoсфернoе давление в разных тoчках местнoсти мoжет значительнo oтличаться oт давления на метеoстанции, в зависимoсти oт услoвий рельефа (при пoдъёме на 10 м давление пoнижается примернo на 1 мм рт.ст.).